Voltar ao catálogo

COSMOS 82

AtivoMilitarLEO
NORAD 1572·PAYLOAD·🇷🇺 Russia

Lançado Sep 3, 1965 de Baikonur Cosmodrome

Loading…

Próximas Passagens (próximas 24 horas)

TLE

AtualizadoSource: Space-Track

Época: Sep 14, 2026, 07:43 UTC

1 01572U 65070C   26257.32221722 -.00000102  00000-0 -55818-4 0  9992
2 01572  56.0619  19.2406 0074940  20.4163   4.0709 12.45124270775306

Acompanhe COSMOS 82 em tempo real com AllMySat

Download on the App Store